Hourly Data Report for January 12, 2022

ST. JOHN'S INTL A
NEWFOUNDLAND
Current Station Operator: NAVCAN

47°37'07.000" N
52°45'09.000" W
140.50 m
8403505
71801
YYT

Download Data

Hourly Data (January 2022)
Hourly Data Report for January 12, 2022
TIME
LST
Temp Definition
°C
Dew Point Definition
°C
Rel Hum Definition
%
Precip. Amount Definition
mm

Wind Dir Definition
10's deg

Wind Spd Definition
km/h
Visibility Definition
km
Stn Press Definition
kPa
Hmdx Definition


Wind Chill Definition


Weather Definition


00:30 -10.4 -15.6 66   30 21 24.1 100.00   -19 LegendNANA
01:30 -10.8 -16.3 64   30 22 24.1 100.08   -19 LegendNANA
02:30 -12.5 -17.2 68   30 12 24.1 100.19   -19 Mainly Clear
03:30 -11.8 -16.6 68   30 15 24.1 100.22   -19 LegendNANA
04:30 -11.5 -16.8 65   30 23 24.1 100.31   -20 LegendNANA
05:30 -11.8 -17.7 62   31 18 24.1 100.39   -20 Mainly Clear
06:30 -11.9 -17.3 64   31 18 24.1 100.50   -20 LegendNANA
07:30 -12.1 -17.6 64   29 11 24.1 100.62   -18 LegendNANA
08:30 -10.8 -16.2 65   30 20 24.1 100.71   -19 Mainly Clear
09:30 -10.1 -16.7 59   30 22 24.1 100.78   -18 LegendNANA
10:30 -9.9 -16.9 57   29 22 24.1 100.82   -18 LegendNANA
11:30 -9.0 -16.1 57   28 25 24.1 100.84   -17 Mainly Clear
12:30 -8.8 -15.2 60   29 19 24.1 100.82   -16 LegendNANA
13:30 -7.9 -15.0 57   29 27 24.1 100.80   -16 LegendNANA
14:30 -8.1 -15.7 55   30 28 24.1 100.81   -17 Mainly Clear
15:30 -8.3 -14.9 59   30 22 24.1 100.81   -16 LegendNANA
16:30 -8.6 -14.3 64   30 17 24.1 100.87   -15 LegendNANA
17:30 -8.7 -13.7 67   29 10 24.1 100.94   -14 Mainly Clear
18:30 -7.5 -13.3 63   27 15 24.1 100.97   -14 LegendNANA
19:30 -7.9 -13.2 66   23 8 24.1 101.00   -12 LegendNANA
20:30 -8.1 -12.3 72   18 13 24.1 101.04   -14 Mostly Cloudy
21:30 -8.0 -12.0 73   20 13 24.1 101.01   -14 LegendNANA
22:30 -7.8 -11.7 73   20 20 24.1 101.03   -15 LegendNANA
23:30 -7.0 -10.7 75   21 19 24.1 101.01   -14 Cloudy

Notes on Data Quality.

Legend

  • E = Estimated
  • M = Missing
  • NA = Not Available*
  • [empty] = Indicates an unobserved value
Date modified: